Change the Weather History Date:

Thursday, December 13, 2012

  Actual Average Record
Temperature  
Mean Temperature 52 °F -  
Max Temperature 59 °F 53 °F 69 °F (1958)
Min Temperature 44 °F 26 °F 12 °F (1945)
Degree Days  
Heating Degree Days 14    
Growing Degree Days 2 (Base 50)    
Moisture  
Dew Point 35 °F    
Average Humidity 63    
Maximum Humidity 87    
Minimum Humidity 27    
Precipitation  
Precipitation 0.03 in - - ()
Sea Level Pressure  
Sea Level Pressure 29.80 in    
Wind  
Wind Speed 8 mph (WSW)    
Max Wind Speed 15 mph    
Max Gust Speed -    
Visibility 10 miles    
Events      
Averages and records for this station are not official NWS values.
T = Trace of Precipitation, MM = Missing Value Source: NWS Daily Summary

Daily Weather History Graph

Daily Weather History Graph

Search for Another Location

Airport or City:

Trip Planner

Search our weather history database for the weather conditions in past years. The results will help you decide how hot, cold, wet, or windy it might be!

Date:

Astronomy

Dec. 13, 2012 Rise Set
Actual Time 7:39 AM MST 5:18 PM MST
Civil Twilight 7:10 AM MST 5:47 PM MST
Nautical Twilight 6:38 AM MST 6:19 PM MST
Astronomical Twilight 6:06 AM MST 6:51 PM MST
Moon 7:52 AM MST (12/13) 6:04 PM MST (12/13)
Length of Visible Light 10h 36m
Length of Day
9h 38m
New Moon, 0% of the Moon is Illuminated
Dec 13
New Moon
Dec 19
First Quarter
Dec 28
Full
Jan 4
Last Quarter
Jan 11
New

Hourly Weather History & Observations

Time (MST) Temp. Windchill Dew Point Humidity Pressure Visibility Wind Dir Wind Speed Gust Speed Precip Events Conditions
2:55 PM 59.0 °F - 24.8 °F 27% 29.80 in 10.0 mi South 12.7 mph - N/A   Overcast
3:15 PM 59.0 °F - 24.8 °F 27% 29.80 in 10.0 mi SSW 15.0 mph - N/A   Mostly Cloudy
3:35 PM 59.0 °F - 24.8 °F 27% 29.80 in 10.0 mi SSW 10.4 mph - N/A   Overcast
5:55 PM 50.0 °F - 35.6 °F 58% 29.81 in 10.0 mi WSW 13.8 mph - N/A   Overcast
6:15 PM 50.0 °F - 35.6 °F 58% 29.81 in 10.0 mi West 6.9 mph - N/A   Overcast
6:35 PM 50.0 °F - 35.6 °F 58% 29.81 in 10.0 mi NW 4.6 mph - N/A   Overcast
6:55 PM 50.0 °F - 35.6 °F 58% 29.81 in 10.0 mi North 5.8 mph - N/A   Overcast
7:15 PM 48.2 °F - 35.6 °F 62% 29.81 in 10.0 mi North 3.5 mph - N/A   Overcast
7:35 PM 48.2 °F - 35.6 °F 62% 29.81 in 10.0 mi NE 3.5 mph - N/A   Overcast
7:55 PM 48.2 °F - 33.8 °F 58% 29.80 in 10.0 mi Calm Calm - N/A   Overcast
8:15 PM 48.2 °F - 33.8 °F 58% 29.80 in 10.0 mi SW 4.6 mph - N/A   Overcast
8:35 PM 48.2 °F - 37.4 °F 66% 29.81 in 10.0 mi South 4.6 mph - N/A   Overcast
8:55 PM 48.2 °F - 37.4 °F 66% 29.80 in 10.0 mi SW 3.5 mph - N/A   Overcast
9:15 PM 46.4 °F - 37.4 °F 71% 29.80 in 10.0 mi Calm Calm - N/A   Overcast
9:35 PM 46.4 °F 45.2 °F 37.4 °F 71% 29.80 in 10.0 mi NW 3.5 mph - N/A   Overcast
9:55 PM 46.4 °F 43.5 °F 37.4 °F 71% 29.80 in 10.0 mi West 5.8 mph - N/A   Overcast
10:15 PM 46.4 °F 43.5 °F 39.2 °F 76% 29.79 in 10.0 mi WSW 5.8 mph - N/A   Overcast
10:35 PM 46.4 °F - 39.2 °F 76% 29.79 in 10.0 mi Calm Calm - N/A   Overcast
10:55 PM 46.4 °F 42.9 °F 39.2 °F 76% 29.79 in 10.0 mi SW 6.9 mph - N/A   Overcast
11:15 PM 44.6 °F 41.4 °F 39.2 °F 81% 29.79 in 10.0 mi SSW 5.8 mph - 0.03 in   Overcast
11:35 PM 44.6 °F 43.1 °F 41.0 °F 87% 29.77 in 10.0 mi ENE 3.5 mph - 0.03 in   Overcast
11:55 PM 44.6 °F 43.1 °F 39.2 °F 81% 29.77 in 10.0 mi NNW 3.5 mph - 0.03 in   Overcast